Location: W�rzburg
(49.7529°N, 9.8822°E)
Time: 14:54:41
(UTC+01:00)

ISS - Pass Details

Date: 13 January 2018
Orbit: 402 x 407 km, 51.6° (Epoch: 18 January)

Event Time Altitude Azimuth Distance (km) Brightness Sun altitude
Exits shadow 07:06:34 11° 255° (WSW) 1,407 -1.6 -10.5°
Maximum altitude 07:08:17 15° 222° (SW) 1,197 -1.6 -10.2°
Drops below altitude 10° 07:10:14 10° 185° (S) 1,461 -0.8 -9.9°
Sets 07:12:56 0° 161° (SSE) 2,317 0.7 -9.5°
